Location: Unnamed
(47.1081°N, 17.9134°E)
Time: 16:53:11
(UTC+02:00)

ISS - Visible Passes

Search period start: 11 April 2026 00:00
Search period end: 21 April 2026 00:00
Orbit: 416 x 424 km, 51.6° (Epoch: 11 April)

Date Brightness Start Highest point End Pass type
(mag) Time Alt. Az. Time Alt. Az. Time Alt. Az.
16 Apr -0.8 05:26:36 10° SE 05:27:24 11° SE 05:28:13 10° ESE visible
19 Apr -1.4 04:39:32 10° S 04:41:48 17° SE 04:44:04 10° E visible
20 Apr -1.1 03:53:44 10° SSE 03:54:36 11° SE 03:55:28 10° ESE visible
